| time (UTC) | temp F | wind direction | speed knots | gust knots | rain 1hr in | rain 24hr in | rain mn in | humidity % | barometer mb |
| 20260506103503 | 61 | 0 | 0.0 | 0.0 | 0.00 | 0.00 | 0.00 | 66 | 1008.1 |
| 20260506103003 | 61 | 0 | 0.0 | 0.0 | 0.00 | 0.00 | 0.00 | 68 | 1007.7 |
| 20260506102504 | 61 | 0 | 0.0 | 0.0 | 0.00 | 0.00 | 0.00 | 67 | 1007.9 |
| 20260506102004 | 61 | 0 | 0.0 | 0.0 | 0.00 | 0.00 | 0.00 | 67 | 1007.8 |
| 20260506101504 | 62 | 165 | 0.0 | 0.9 | 0.00 | 0.00 | 0.00 | 66 | 1007.9 |
| 20260506101004 | 62 | 165 | 0.0 | 0.9 | 0.00 | 0.00 | 0.00 | 66 | 1007.9 |
| 20260506100504 | 62 | 0 | 0.0 | 0.0 | 0.00 | 0.00 | 0.00 | 66 | 1007.8 |
| 20260506100004 | 62 | 0 | 0.0 | 0.0 | 0.00 | 0.00 | 0.00 | 66 | 1007.7 |
| 20260506095503 | 62 | 0 | 0.0 | 0.0 | 0.00 | 0.00 | 0.00 | 64 | 1007.8 |
| 20260506095024 | 62 | 0 | 0.0 | 0.0 | 0.00 | 0.00 | 0.00 | 63 | 1007.9 |
| 20260506094503 | 62 | 0 | 0.0 | 0.0 | 0.00 | 0.00 | 0.00 | 64 | 1008.0 |
| 20260506094003 | 62 | 0 | 0.0 | 0.0 | 0.00 | 0.00 | 0.00 | 64 | 1008.0 |
| 20260506093503 | 62 | 165 | 0.0 | 0.9 | 0.00 | 0.00 | 0.00 | 63 | 1007.9 |
| 20260506093004 | 62 | 165 | 0.0 | 0.9 | 0.00 | 0.00 | 0.00 | 64 | 1007.9 |
| 20260506092503 | 62 | 165 | 0.0 | 0.9 | 0.00 | 0.00 | 0.00 | 65 | 1007.8 |
| 20260506092003 | 62 | 0 | 0.0 | 0.0 | 0.00 | 0.00 | 0.00 | 64 | 1007.9 |
| 20260506091525 | 62 | 0 | 0.0 | 0.0 | 0.00 | 0.00 | 0.00 | 63 | 1007.9 |
| 20260506091003 | 62 | 165 | 0.0 | 0.9 | 0.00 | 0.00 | 0.00 | 64 | 1007.9 |
| 20260506090503 | 62 | 165 | 0.0 | 0.9 | 0.00 | 0.00 | 0.00 | 65 | 1007.9 |
| 20260506090004 | 62 | 166 | 0.0 | 2.6 | 0.00 | 0.00 | 0.00 | 64 | 1008.0 |
| 20260506085503 | 62 | 168 | 0.0 | 2.6 | 0.00 | 0.00 | 0.00 | 63 | 1008.1 |
| 20260506085003 | 62 | 169 | 0.0 | 2.6 | 0.00 | 0.00 | 0.00 | 65 | 1008.1 |
| 20260506084503 | 62 | 169 | 0.0 | 2.6 | 0.00 | 0.00 | 0.00 | 63 | 1008.3 |
| 20260506084003 | 62 | 169 | 0.9 | 2.6 | 0.00 | 0.00 | 0.00 | 66 | 1008.1 |
| 20260506083503 | 62 | 169 | 0.0 | 2.6 | 0.00 | 0.00 | 0.00 | 65 | 1008.2 |
| 20260506083004 | 62 | 169 | 0.0 | 0.9 | 0.00 | 0.00 | 0.00 | 62 | 1008.5 |
| 20260506082503 | 62 | 169 | 0.0 | 0.9 | 0.00 | 0.00 | 0.00 | 62 | 1008.3 |
| 20260506082024 | 62 | 169 | 0.0 | 0.9 | 0.00 | 0.00 | 0.00 | 62 | 1008.3 |
| 20260506081503 | 62 | 169 | 0.9 | 2.6 | 0.00 | 0.00 | 0.00 | 62 | 1008.2 |
| 20260506081003 | 62 | 169 | 0.9 | 2.6 | 0.00 | 0.00 | 0.00 | 62 | 1008.1 |
| 20260506080525 | 62 | 169 | 0.0 | 2.6 | 0.00 | 0.00 | 0.00 | 61 | 1008.1 |
| 20260506073503 | 62 | 0 | 0.0 | 0.0 | 0.00 | 0.00 | 0.00 | 64 | 1008.0 |
| 20260506073003 | 62 | 169 | 0.0 | 0.9 | 0.00 | 0.00 | 0.00 | 63 | 1008.1 |
| 20260506072524 | 62 | 169 | 0.0 | 0.9 | 0.00 | 0.00 | 0.00 | 62 | 1008.1 |
| 20260506072003 | 62 | 169 | 0.0 | 0.9 | 0.00 | 0.00 | 0.00 | 63 | 1008.3 |
| 20260506071503 | 62 | 169 | 0.0 | 2.6 | 0.00 | 0.00 | 0.00 | 63 | 1008.3 |
| 20260506071024 | 62 | 169 | 0.0 | 2.6 | 0.00 | 0.00 | 0.00 | 64 | 1008.4 |
| 20260506070504 | 62 | 169 | 0.0 | 2.6 | 0.00 | 0.00 | 0.00 | 63 | 1008.5 |
| 20260506062503 | 61 | 0 | 0.0 | 0.0 | 0.00 | 0.00 | 0.00 | 66 | 1008.7 |
| 20260506062003 | 61 | 0 | 0.0 | 0.0 | 0.00 | 0.00 | 0.00 | 66 | 1008.7 |
| 20260506061524 | 60 | 0 | 0.0 | 0.0 | 0.00 | 0.00 | 0.00 | 66 | 1008.7 |
| 20260506061024 | 61 | 0 | 0.0 | 0.0 | 0.00 | 0.00 | 0.00 | 67 | 1008.8 |
| 20260506060503 | 61 | 0 | 0.0 | 0.0 | 0.00 | 0.00 | 0.00 | 69 | 1008.7 |
| 20260506051026 | 62 | 0 | 0.0 | 0.0 | 0.00 | 0.00 | 0.00 | 68 | 1009.4 |
| 20260506050505 | 62 | 0 | 0.0 | 0.0 | 0.00 | 0.00 | 0.00 | 68 | 1009.4 |
| 20260506045005 | 62 | 0 | 0.0 | 0.0 | 0.00 | 0.00 | 0.00 | 68 | 1009.3 |
| 20260506044505 | 62 | 0 | 0.0 | 0.0 | 0.00 | 0.00 | 0.00 | 69 | 1009.2 |
| 20260506044005 | 62 | 0 | 0.0 | 0.0 | 0.00 | 0.00 | 0.00 | 69 | 1009.2 |
| 20260506043505 | 62 | 0 | 0.0 | 0.0 | 0.00 | 0.00 | 0.00 | 70 | 1009.2 |
| 20260506043005 | 62 | 0 | 0.0 | 0.0 | 0.00 | 0.00 | 0.00 | 70 | 1009.3 |
| 20260506042505 | 62 | 0 | 0.0 | 0.0 | 0.00 | 0.00 | 0.00 | 70 | 1009.3 |
| 20260506042026 | 62 | 0 | 0.0 | 0.0 | 0.00 | 0.00 | 0.00 | 70 | 1009.5 |
| 20260506041505 | 62 | 0 | 0.0 | 0.0 | 0.00 | 0.00 | 0.00 | 69 | 1009.5 |
| 20260506041005 | 62 | 0 | 0.0 | 0.0 | 0.00 | 0.00 | 0.00 | 69 | 1009.5 |
| 20260506040505 | 62 | 0 | 0.0 | 0.0 | 0.00 | 0.00 | 0.00 | 69 | 1009.5 |
| 20260506040005 | 62 | 0 | 0.0 | 0.0 | 0.00 | 0.00 | 0.00 | 69 | 1009.6 |
| 20260506035505 | 63 | 0 | 0.0 | 0.0 | 0.00 | 0.00 | 0.00 | 68 | 1009.6 |
| 20260506035026 | 63 | 0 | 0.0 | 0.0 | 0.00 | 0.00 | 0.00 | 68 | 1009.7 |
| 20260506034505 | 63 | 0 | 0.0 | 0.0 | 0.00 | 0.00 | 0.00 | 68 | 1009.5 |
| 20260506034005 | 63 | 0 | 0.0 | 0.0 | 0.00 | 0.00 | 0.00 | 67 | 1009.7 |
| 20260506033505 | 63 | 173 | 0.0 | 2.6 | 0.00 | 0.00 | 0.00 | 68 | 1009.6 |
| 20260506033005 | 63 | 175 | 0.0 | 2.6 | 0.00 | 0.00 | 0.00 | 67 | 1009.7 |
| 20260506032505 | 63 | 179 | 0.0 | 2.6 | 0.00 | 0.00 | 0.00 | 67 | 1009.6 |
| 20260506032005 | 63 | 0 | 0.0 | 0.0 | 0.00 | 0.00 | 0.00 | 67 | 1009.6 |
| 20260506031505 | 63 | 0 | 0.0 | 0.0 | 0.00 | 0.00 | 0.00 | 67 | 1009.7 |
| 20260506031005 | 63 | 0 | 0.0 | 0.0 | 0.00 | 0.00 | 0.00 | 67 | 1009.7 |
| 20260506030505 | 63 | 0 | 0.0 | 0.0 | 0.00 | 0.00 | 0.00 | 66 | 1009.5 |
| 20260506030005 | 63 | 0 | 0.0 | 0.0 | 0.00 | 0.00 | 0.00 | 66 | 1009.5 |
| 20260506025505 | 64 | 0 | 0.0 | 0.0 | 0.00 | 0.00 | 0.00 | 66 | 1009.5 |
| 20260506025005 | 64 | 0 | 0.0 | 0.0 | 0.00 | 0.00 | 0.00 | 66 | 1009.5 |
| 20260506024505 | 64 | 0 | 0.0 | 0.0 | 0.00 | 0.00 | 0.00 | 65 | 1009.5 |
| 20260506024005 | 64 | 0 | 0.0 | 0.0 | 0.00 | 0.00 | 0.00 | 65 | 1009.5 |
| 20260506023505 | 64 | 0 | 0.0 | 0.0 | 0.00 | 0.00 | 0.00 | 66 | 1009.4 |
| 20260506023026 | 64 | 0 | 0.0 | 0.0 | 0.00 | 0.00 | 0.00 | 65 | 1009.4 |
| 20260506022505 | 65 | 0 | 0.0 | 0.0 | 0.00 | 0.00 | 0.00 | 65 | 1009.3 |
| 20260506022005 | 65 | 0 | 0.0 | 0.0 | 0.00 | 0.00 | 0.00 | 65 | 1009.4 |
| 20260506021526 | 65 | 0 | 0.0 | 0.0 | 0.00 | 0.00 | 0.00 | 64 | 1009.3 |
| 20260506021005 | 65 | 0 | 0.0 | 0.0 | 0.00 | 0.00 | 0.00 | 65 | 1009.4 |
| 20260506020505 | 66 | 0 | 0.0 | 0.0 | 0.00 | 0.00 | 0.00 | 64 | 1009.4 |
| 20260506020005 | 66 | 0 | 0.0 | 0.0 | 0.00 | 0.00 | 0.00 | 63 | 1009.4 |
| 20260506015505 | 66 | 0 | 0.0 | 0.0 | 0.00 | 0.00 | 0.00 | 63 | 1009.4 |
| 20260506015005 | 66 | 0 | 0.0 | 0.0 | 0.00 | 0.00 | 0.00 | 62 | 1009.4 |
| 20260506014505 | 66 | 0 | 0.0 | 0.0 | 0.00 | 0.00 | 0.00 | 62 | 1009.4 |
| 20260506014026 | 67 | 0 | 0.0 | 0.0 | 0.00 | 0.00 | 0.00 | 61 | 1009.4 |
| 20260506013504 | 67 | 0 | 0.0 | 0.0 | 0.00 | 0.00 | 0.00 | 61 | 1009.3 |
| 20260506013027 | 67 | 0 | 0.0 | 0.0 | 0.00 | 0.00 | 0.00 | 60 | 1009.3 |
| 20260506012505 | 67 | 0 | 0.0 | 0.0 | 0.00 | 0.00 | 0.00 | 59 | 1009.2 |
| 20260506012004 | 67 | 0 | 0.0 | 0.0 | 0.00 | 0.00 | 0.00 | 58 | 1009.1 |
| 20260506011505 | 68 | 0 | 0.0 | 0.0 | 0.00 | 0.00 | 0.00 | 58 | 1009.0 |
| 20260506011005 | 68 | 0 | 0.0 | 0.0 | 0.00 | 0.00 | 0.00 | 58 | 1008.9 |
| 20260506010505 | 68 | 0 | 0.0 | 0.0 | 0.00 | 0.00 | 0.00 | 57 | 1008.8 |
| 20260506010004 | 68 | 0 | 0.0 | 0.0 | 0.00 | 0.00 | 0.00 | 57 | 1008.8 |
| 20260506005504 | 68 | 0 | 0.0 | 0.0 | 0.00 | 0.00 | 0.00 | 56 | 1008.7 |
| 20260506005005 | 69 | 0 | 0.0 | 0.0 | 0.00 | 0.00 | 0.00 | 56 | 1008.7 |
| 20260506004505 | 69 | 0 | 0.0 | 0.0 | 0.00 | 0.00 | 0.00 | 55 | 1008.6 |
| 20260506004005 | 69 | 0 | 0.0 | 0.0 | 0.00 | 0.00 | 0.00 | 56 | 1008.6 |
| 20260506003505 | 70 | 0 | 0.0 | 0.0 | 0.00 | 0.00 | 0.00 | 55 | 1008.5 |
| 20260506003005 | 70 | 0 | 0.0 | 0.0 | 0.00 | 0.00 | 0.00 | 54 | 1008.5 |
| 20260506002504 | 70 | 0 | 0.0 | 0.0 | 0.00 | 0.00 | 0.00 | 53 | 1008.6 |
| 20260506002005 | 70 | 0 | 0.0 | 0.0 | 0.00 | 0.00 | 0.00 | 53 | 1008.6 |
| 20260506001504 | 70 | 0 | 0.0 | 0.0 | 0.00 | 0.00 | 0.00 | 54 | 1008.6 |
| 20260506001005 | 70 | 0 | 0.0 | 0.0 | 0.00 | 0.00 | 0.00 | 54 | 1008.5 |
| 20260506000505 | 70 | 0 | 0.0 | 0.0 | 0.00 | 0.00 | 0.00 | 53 | 1008.5 |
| 20260506000005 | 71 | 0 | 0.0 | 0.0 | 0.00 | 0.00 | 0.00 | 52 | 1008.4 |
| 20260505235505 | 71 | 0 | 0.0 | 0.0 | 0.00 | 0.00 | 0.00 | 53 | 1008.4 |
| 20260505235005 | 71 | 0 | 0.0 | 0.0 | 0.00 | 0.00 | 0.00 | 54 | 1008.4 |
| 20260505234504 | 71 | 0 | 0.0 | 0.0 | 0.00 | 0.00 | 0.00 | 52 | 1008.3 |
| 20260505234005 | 71 | 0 | 0.0 | 0.0 | 0.00 | 0.00 | 0.00 | 50 | 1008.2 |
| 20260505233504 | 71 | 0 | 0.0 | 0.0 | 0.00 | 0.00 | 0.00 | 50 | 1008.2 |
| 20260505233004 | 72 | 0 | 0.0 | 0.0 | 0.00 | 0.00 | 0.00 | 53 | 1008.3 |
| 20260505232504 | 72 | 0 | 0.0 | 0.0 | 0.00 | 0.00 | 0.00 | 51 | 1008.2 |
| 20260505232004 | 72 | 214 | 0.0 | 0.9 | 0.00 | 0.00 | 0.00 | 53 | 1008.1 |
| 20260505231504 | 72 | 214 | 0.0 | 2.6 | 0.00 | 0.00 | 0.00 | 52 | 1008.2 |
| 20260505231004 | 72 | 214 | 0.0 | 2.6 | 0.00 | 0.00 | 0.00 | 51 | 1008.1 |
| 20260505230504 | 72 | 214 | 0.0 | 0.9 | 0.00 | 0.00 | 0.00 | 53 | 1008.1 |
| 20260505230005 | 72 | 214 | 0.0 | 2.6 | 0.00 | 0.00 | 0.00 | 52 | 1008.1 |
| 20260505225504 | 72 | 214 | 0.0 | 2.6 | 0.00 | 0.00 | 0.00 | 51 | 1008.1 |
| 20260505225026 | 72 | 216 | 0.0 | 2.6 | 0.00 | 0.00 | 0.00 | 50 | 1008.1 |
| 20260505224505 | 73 | 216 | 0.0 | 2.6 | 0.00 | 0.00 | 0.00 | 50 | 1008.0 |
| 20260505224005 | 73 | 212 | 0.0 | 2.6 | 0.00 | 0.00 | 0.00 | 51 | 1008.1 |
| 20260505223505 | 73 | 209 | 0.0 | 2.6 | 0.00 | 0.00 | 0.00 | 50 | 1007.9 |
| 20260505223005 | 73 | 205 | 0.0 | 2.6 | 0.00 | 0.00 | 0.00 | 51 | 1007.9 |
| 20260505222526 | 73 | 201 | 0.0 | 0.9 | 0.00 | 0.00 | 0.00 | 51 | 1007.8 |
| 20260505222004 | 73 | 199 | 0.0 | 0.9 | 0.00 | 0.00 | 0.00 | 50 | 1007.6 |
| 20260505221504 | 74 | 194 | 0.9 | 3.5 | 0.00 | 0.00 | 0.00 | 50 | 1007.7 |
| 20260505221025 | 74 | 196 | 0.9 | 3.5 | 0.00 | 0.00 | 0.00 | 49 | 1007.7 |
| 20260505220504 | 74 | 203 | 0.9 | 7.8 | 0.00 | 0.00 | 0.00 | 50 | 1007.7 |
| 20260505220004 | 74 | 202 | 2.6 | 7.8 | 0.00 | 0.00 | 0.00 | 51 | 1007.8 |
| 20260505215505 | 74 | 210 | 2.6 | 11.3 | 0.00 | 0.00 | 0.00 | 48 | 1007.7 |
| 20260505215004 | 74 | 207 | 3.5 | 13.9 | 0.00 | 0.00 | 0.00 | 49 | 1007.6 |
| 20260505214504 | 74 | 199 | 3.5 | 13.9 | 0.00 | 0.00 | 0.00 | 49 | 1007.5 |
| 20260505214026 | 74 | 199 | 2.6 | 7.8 | 0.00 | 0.00 | 0.00 | 51 | 1007.6 |
| 20260505213504 | 74 | 209 | 2.6 | 6.1 | 0.00 | 0.00 | 0.00 | 50 | 1007.7 |
| 20260505213004 | 74 | 215 | 2.6 | 6.1 | 0.00 | 0.00 | 0.00 | 49 | 1007.6 |
| 20260505212504 | 75 | 219 | 2.6 | 7.8 | 0.00 | 0.00 | 0.00 | 49 | 1007.6 |
| 20260505212004 | 76 | 232 | 2.6 | 8.7 | 0.00 | 0.00 | 0.00 | 46 | 1007.6 |
| 20260505211504 | 76 | 230 | 2.6 | 8.7 | 0.00 | 0.00 | 0.00 | 46 | 1007.4 |
| 20260505211004 | 76 | 222 | 3.5 | 8.7 | 0.00 | 0.00 | 0.00 | 46 | 1007.4 |
| 20260505210504 | 76 | 210 | 2.6 | 8.7 | 0.00 | 0.00 | 0.00 | 46 | 1007.5 |
| 20260505210004 | 77 | 208 | 3.5 | 8.7 | 0.00 | 0.00 | 0.00 | 47 | 1007.5 |
| 20260505205504 | 76 | 198 | 5.2 | 12.2 | 0.00 | 0.00 | 0.00 | 46 | 1007.5 |
| 20260505205004 | 77 | 197 | 6.1 | 12.2 | 0.00 | 0.00 | 0.00 | 43 | 1007.4 |
| 20260505204504 | 77 | 212 | 6.1 | 20.0 | 0.00 | 0.00 | 0.00 | 45 | 1007.5 |
| 20260505204005 | 77 | 216 | 5.2 | 20.0 | 0.00 | 0.00 | 0.00 | 42 | 1007.2 |
| 20260505203504 | 76 | 214 | 5.2 | 12.2 | 0.00 | 0.00 | 0.00 | 41 | 1007.2 |
| 20260505203004 | 76 | 215 | 5.2 | 14.8 | 0.00 | 0.00 | 0.00 | 45 | 1007.1 |
| 20260505202504 | 76 | 208 | 6.1 | 14.8 | 0.00 | 0.00 | 0.00 | 43 | 1007.1 |
| 20260505202004 | 76 | 212 | 6.1 | 13.9 | 0.00 | 0.00 | 0.00 | 43 | 1007.2 |
| 20260505201504 | 76 | 223 | 6.1 | 16.5 | 0.00 | 0.00 | 0.00 | 41 | 1007.2 |
| 20260505201004 | 76 | 229 | 5.2 | 16.5 | 0.00 | 0.00 | 0.00 | 43 | 1007.2 |
| 20260505200504 | 76 | 219 | 5.2 | 13.9 | 0.00 | 0.00 | 0.00 | 45 | 1007.2 |
| 20260505200004 | 76 | 207 | 7.8 | 20.0 | 0.00 | 0.00 | 0.00 | 43 | 1007.2 |
| 20260505195504 | 76 | 200 | 7.8 | 20.0 | 0.00 | 0.00 | 0.00 | 43 | 1007.1 |
| 20260505195004 | 77 | 190 | 7.8 | 17.4 | 0.00 | 0.00 | 0.00 | 42 | 1007.1 |
| 20260505194504 | 78 | 183 | 7.8 | 17.4 | 0.00 | 0.00 | 0.00 | 41 | 1006.9 |
| 20260505194025 | 79 | 187 | 7.8 | 17.4 | 0.00 | 0.00 | 0.00 | 41 | 1006.8 |
| 20260505193504 | 80 | 206 | 6.1 | 13.9 | 0.00 | 0.00 | 0.00 | 39 | 1007.0 |
| 20260505193004 | 79 | 204 | 6.1 | 19.1 | 0.00 | 0.00 | 0.00 | 46 | 1007.1 |
| 20260505192525 | 79 | 194 | 6.1 | 19.1 | 0.00 | 0.00 | 0.00 | 42 | 1007.1 |
| 20260505192004 | 80 | 198 | 6.1 | 14.8 | 0.00 | 0.00 | 0.00 | 41 | 1007.1 |
| 20260505191525 | 79 | 196 | 7.8 | 14.8 | 0.00 | 0.00 | 0.00 | 43 | 1007.2 |
| 20260505191004 | 80 | 195 | 7.8 | 14.8 | 0.00 | 0.00 | 0.00 | 40 | 1007.2 |
| 20260505190504 | 81 | 197 | 5.2 | 13.9 | 0.00 | 0.00 | 0.00 | 42 | 1007.2 |
| 20260505190004 | 80 | 192 | 5.2 | 11.3 | 0.00 | 0.00 | 0.00 | 42 | 1007.4 |
| 20260505185504 | 80 | 202 | 6.1 | 12.2 | 0.00 | 0.00 | 0.00 | 40 | 1007.4 |
| 20260505185004 | 80 | 207 | 6.1 | 17.4 | 0.00 | 0.00 | 0.00 | 43 | 1007.6 |
| 20260505184504 | 80 | 201 | 6.1 | 17.4 | 0.00 | 0.00 | 0.00 | 41 | 1007.7 |
| 20260505184004 | 80 | 209 | 5.2 | 14.8 | 0.00 | 0.00 | 0.00 | 39 | 1007.8 |
| 20260505183525 | 80 | 222 | 5.2 | 14.8 | 0.00 | 0.00 | 0.00 | 42 | 1007.7 |
| 20260505183025 | 80 | 219 | 6.1 | 17.4 | 0.00 | 0.00 | 0.00 | 42 | 1007.8 |
| 20260505182525 | 80 | 197 | 7.8 | 20.0 | 0.00 | 0.00 | 0.00 | 43 | 1008.1 |
| 20260505182004 | 80 | 187 | 7.8 | 22.6 | 0.00 | 0.00 | 0.00 | 39 | 1008.2 |
| 20260505181525 | 80 | 192 | 6.1 | 22.6 | 0.00 | 0.00 | 0.00 | 40 | 1008.1 |
| 20260505181004 | 80 | 199 | 6.1 | 14.8 | 0.00 | 0.00 | 0.00 | 45 | 1008.2 |
| 20260505180504 | 80 | 193 | 7.8 | 14.8 | 0.00 | 0.00 | 0.00 | 42 | 1008.5 |
| 20260505180004 | 79 | 192 | 6.1 | 14.8 | 0.00 | 0.00 | 0.00 | 42 | 1008.4 |
| 20260505175504 | 79 | 206 | 5.2 | 13.9 | 0.00 | 0.00 | 0.00 | 41 | 1008.5 |
| 20260505175004 | 79 | 205 | 5.2 | 13.9 | 0.00 | 0.00 | 0.00 | 44 | 1008.5 |
| 20260505174525 | 79 | 189 | 5.2 | 14.8 | 0.00 | 0.00 | 0.00 | 43 | 1008.6 |
| 20260505174004 | 78 | 201 | 5.2 | 14.8 | 0.00 | 0.00 | 0.00 | 46 | 1008.5 |
| 20260505173504 | 78 | 206 | 6.1 | 14.8 | 0.00 | 0.00 | 0.00 | 45 | 1008.7 |
| 20260505173005 | 77 | 196 | 5.2 | 14.8 | 0.00 | 0.00 | 0.00 | 46 | 1008.5 |
| 20260505172505 | 78 | 203 | 5.2 | 17.4 | 0.00 | 0.00 | 0.00 | 46 | 1008.4 |
| 20260505172004 | 79 | 198 | 5.2 | 17.4 | 0.00 | 0.00 | 0.00 | 45 | 1008.4 |
| 20260505171504 | 78 | 209 | 5.2 | 13.9 | 0.00 | 0.00 | 0.00 | 44 | 1008.3 |
| 20260505171004 | 78 | 223 | 5.2 | 13.9 | 0.00 | 0.00 | 0.00 | 47 | 1008.5 |
| 20260505170504 | 78 | 200 | 5.2 | 19.1 | 0.00 | 0.00 | 0.00 | 44 | 1008.6 |
| 20260505170025 | 78 | 183 | 6.1 | 19.1 | 0.00 | 0.00 | 0.00 | 47 | 1008.6 |
| 20260505165504 | 78 | 186 | 6.1 | 19.1 | 0.00 | 0.00 | 0.00 | 47 | 1008.7 |
| 20260505165025 | 78 | 201 | 6.1 | 17.4 | 0.00 | 0.00 | 0.00 | 44 | 1008.7 |
| 20260505164504 | 78 | 194 | 6.1 | 17.4 | 0.00 | 0.00 | 0.00 | 47 | 1008.9 |
| 20260505164004 | 78 | 195 | 5.2 | 14.8 | 0.00 | 0.00 | 0.00 | 47 | 1008.7 |
| 20260505163504 | 78 | 234 | 3.5 | 14.8 | 0.00 | 0.00 | 0.00 | 48 | 1008.9 |
| 20260505163025 | 78 | 217 | 3.5 | 12.2 | 0.00 | 0.00 | 0.00 | 45 | 1009.0 |
| 20260505162504 | 78 | 202 | 5.2 | 12.2 | 0.00 | 0.00 | 0.00 | 48 | 1009.1 |
| 20260505162004 | 78 | 205 | 3.5 | 12.2 | 0.00 | 0.00 | 0.00 | 48 | 1009.0 |
| 20260505161504 | 77 | 211 | 3.5 | 12.2 | 0.00 | 0.00 | 0.00 | 50 | 1009.1 |
| 20260505161025 | 77 | 227 | 3.5 | 12.2 | 0.00 | 0.00 | 0.00 | 48 | 1009.1 |
| 20260505160504 | 77 | 224 | 5.2 | 12.2 | 0.00 | 0.00 | 0.00 | 50 | 1009.1 |
| 20260505153004 | 76 | 186 | 6.1 | 12.2 | 0.00 | 0.00 | 0.00 | 53 | 1009.4 |
| 20260505152505 | 75 | 183 | 5.2 | 12.2 | 0.00 | 0.00 | 0.00 | 51 | 1009.4 |
| 20260505152004 | 75 | 192 | 5.2 | 11.3 | 0.00 | 0.00 | 0.00 | 50 | 1009.5 |
| 20260505151525 | 75 | 196 | 3.5 | 11.3 | 0.00 | 0.00 | 0.00 | 52 | 1009.6 |
| 20260505151004 | 75 | 191 | 5.2 | 19.1 | 0.00 | 0.00 | 0.00 | 54 | 1009.5 |
| 20260505150504 | 74 | 192 | 3.5 | 19.1 | 0.00 | 0.00 | 0.00 | 52 | 1009.5 |
| 20260505140504 | 68 | 189 | 2.6 | 6.1 | 0.00 | 0.00 | 0.00 | 63 | 1010.0 |
| 20260505125025 | 64 | 197 | 3.5 | 10.4 | 0.00 | 0.00 | 0.00 | 67 | 1010.6 |
| 20260505124503 | 64 | 200 | 3.5 | 10.4 | 0.00 | 0.00 | 0.00 | 70 | 1010.4 |
| 20260505124004 | 64 | 187 | 3.5 | 10.4 | 0.00 | 0.00 | 0.00 | 68 | 1010.4 |
| 20260505123504 | 63 | 192 | 3.5 | 7.8 | 0.00 | 0.00 | 0.00 | 68 | 1010.6 |
| 20260505123004 | 62 | 206 | 3.5 | 7.8 | 0.00 | 0.00 | 0.00 | 71 | 1010.4 |
| 20260505122503 | 62 | 207 | 3.5 | 8.7 | 0.00 | 0.00 | 0.00 | 73 | 1010.3 |
| 20260505122004 | 61 | 201 | 3.5 | 8.7 | 0.00 | 0.00 | 0.00 | 75 | 1010.4 |
| 20260505121525 | 61 | 194 | 3.5 | 8.7 | 0.00 | 0.00 | 0.00 | 74 | 1010.4 |
| 20260505121024 | 61 | 185 | 2.6 | 8.7 | 0.00 | 0.00 | 0.00 | 76 | 1010.4 |
| 20260505120503 | 60 | 172 | 2.6 | 5.2 | 0.00 | 0.00 | 0.00 | 73 | 1010.2 |
| 20260505120004 | 60 | 172 | 0.9 | 5.2 | 0.00 | 0.00 | 0.00 | 73 | 1010.3 |
| 20260505115503 | 60 | 170 | 0.9 | 11.3 | 0.00 | 0.00 | 0.00 | 73 | 1010.3 |
| 20260505115004 | 60 | 170 | 0.9 | 11.3 | 0.00 | 0.00 | 0.00 | 73 | 1010.2 |
| 20260505114504 | 59 | 164 | 0.9 | 7.8 | 0.00 | 0.00 | 0.00 | 75 | 1010.2 |
| 20260505114004 | 59 | 168 | 0.9 | 7.8 | 0.00 | 0.00 | 0.00 | 74 | 1010.3 |
| 20260505113524 | 58 | 170 | 0.9 | 3.5 | 0.00 | 0.00 | 0.00 | 74 | 1010.4 |
| 20260505113025 | 58 | 161 | 0.9 | 3.5 | 0.00 | 0.00 | 0.00 | 74 | 1010.3 |
| 20260505112504 | 58 | 167 | 0.9 | 7.8 | 0.00 | 0.00 | 0.00 | 74 | 1010.4 |
| 20260505112003 | 58 | 170 | 0.9 | 7.8 | 0.00 | 0.00 | 0.00 | 75 | 1010.3 |
| 20260505111503 | 58 | 174 | 0.9 | 3.5 | 0.00 | 0.00 | 0.00 | 76 | 1010.1 |
| 20260505111024 | 57 | 169 | 0.9 | 5.2 | 0.00 | 0.00 | 0.00 | 75 | 1010.2 |
| 20260505110504 | 57 | 167 | 2.6 | 5.2 | 0.00 | 0.00 | 0.00 | 77 | 1010.1 |